Home > Weather > Fort Liard > Past weeks

Flag for Canada Weather for the Past 2 Weeks in Fort Liard, Northwest Territories, Canada

Now
81 °F

Passing clouds.


Feels Like: 79 °F
Forecast: 49 / 83 °F
Wind: 14 mph from East

Location: Fort Nelson

Current Time: May 2, 2016 at 3:35:50 PM

Latest Report: May 2, 2016 at 3:00 PM


Visibility: 30 mi

Pressure: 29.79 "Hg

Humidity: 24%

Dew Point: 41 °F

Location of Fort LiardLocation

Historic Weather in Fort Liard — Graph

°F

Fort Liard Temperature Yesterday

Maximum temperature yesterday: 79 °F (at 6:00 PM)
Minimum temperature yesterday: 36 °F (at 5:00 AM)
Average temperature yesterday: 57 °F

High & Low Weather Summary for the Past Weeks

 TemperatureHumidityPressure
High79 °F (Apr 18, 5:00 PM)100% (Apr 24, 1:00 AM)30.45 "Hg (Apr 24, 1:00 AM)
Low28 °F (Apr 21, 7:00 AM)14% (Apr 30, 6:00 PM)29.41 "Hg (Apr 18, 5:00 PM)
Average48 °F54%30.02 "Hg
* Reported Apr 17 2:00 PM — May 2 2:00 PM, Fort Liard, Weather by CustomWeather, © 2016

Note: Actual official high and low records may vary slightly from our data, if they occured in-between our weather recording intervals... More about our weather records

Advertising

Fort Liard Weather History for the Previous 24 Hours

Scroll right to see more
 ConditionsComfort  
Time TempWeatherWind HumidityBarometerVisibility
2:00 PM
Mon, May 2
79 °FPassing clouds.10 mph26%29.82 "Hg30 mi
1:00 PM75 °FScattered clouds.9 mph29%29.85 "Hg30 mi
12:00 PM72 °FPartly sunny.5 mph36%29.88 "Hg30 mi
11:00 AM66 °FBroken clouds.2 mph43%29.90 "Hg30 mi
10:00 AM59 °FBroken clouds.5 mph55%29.92 "Hg30 mi
9:00 AM57 °FPartly sunny.No wind59%29.92 "Hg30 mi
8:00 AM52 °FPartly sunny.No wind67%29.93 "Hg30 mi
7:00 AM46 °FPassing clouds.No wind76%29.94 "Hg30 mi
6:00 AM45 °FPassing clouds.3 mph76%29.94 "Hg20 mi
5:00 AM46 °FPassing clouds.3 mph76%29.93 "Hg15 mi
4:00 AM52 °FPassing clouds.3 mph67%29.92 "Hg15 mi
3:00 AM54 °FClear.3 mph63%29.92 "Hg15 mi
2:00 AM59 °FPassing clouds.No wind51%29.92 "Hg15 mi
1:00 AM64 °FPassing clouds.5 mph43%29.92 "Hg15 mi
12:00 AM66 °FPassing clouds.7 mph40%29.92 "Hg15 mi
11:00 PM
Sun, May 1
68 °FPartly sunny.3 mph38%29.92 "Hg15 mi
10:00 PM70 °FPartly sunny.6 mph33%29.90 "Hg15 mi
9:00 PM72 °FPartly sunny.7 mph31%29.90 "Hg20 mi
8:00 PM75 °FPartly sunny.9 mph25%29.90 "Hg20 mi
7:00 PM77 °FPartly sunny.6 mph26%29.89 "Hg20 mi
6:00 PM79 °FBroken clouds.9 mph21%29.90 "Hg30 mi
5:00 PM77 °FBroken clouds.6 mph24%29.93 "Hg30 mi
4:00 PM75 °FBroken clouds.6 mph27%29.94 "Hg30 mi
3:00 PM72 °FBroken clouds.5 mph29%29.96 "Hg30 mi
Weather by CustomWeather, © 2016

See weather overviewHow to use our weather pages